Location: Northcutt
(34.7304°N, 84.4305°W)
Time: 10:36:55
(UTC+00:00)

A-11 Canister half - Pass Details

Date: 09 October 2022
Orbit: 1524 x 1685 km, 47.3° (Epoch: 30 November)

Event Time Altitude Azimuth Distance (km) Brightness Sun altitude
Rises 18:57:08 0° 240° (WSW) 4,693 12.2 43.4°
Reaches altitude 10° 19:00:12 10° 242° (WSW) 3,700 11.9 43.1°
Maximum altitude 19:09:30 75° 327° (NNW) 1,569 9.7 42.0°
Drops below altitude 10° 19:18:50 10° 53° (NE) 3,705 10.7 40.8°
Sets 19:21:55 0° 56° (NE) 4,701 11.1 40.4°
